UAL193A PTRO-RPLL

Flight info

Callsign UAL193A
Flight time 2h 18m
Altitude 38000
Route ROR R337 ISGOG DCT TAGPI DCT NGA W9 AKDAP AKDAP3R
Aircraft B38M/M-SDE1FGHILORVWXY/HB1

Departure

Time 2026-05-04 07:05
Airport Roman Tmetuchl International Airport (PTRO)

Arrival

Time 2026-05-04 09:23
Airport Ninoy Aquino International Airport (RPLL)
Time Latitude Longitude Altitude Speed Heading
2026-05-04 06:36 7.36510 134.53288 158 ft 0 kts 181°
2026-05-04 06:57 7.36569 134.53251 158 ft 0 kts 91°
2026-05-04 07:01 7.36630 134.53377 158 ft 11 kts 39°
2026-05-04 07:01 7.36667 134.53408 158 ft 0 kts 38°
2026-05-04 07:03 7.36668 134.53409 158 ft 1 kts 38°
2026-05-04 07:03 7.36682 134.53420 157 ft 4 kts 38°
2026-05-04 07:03 7.36716 134.53440 157 ft 7 kts 22°
2026-05-04 07:03 7.36750 134.53478 156 ft 9 kts 88°
2026-05-04 07:04 7.36748 134.53512 156 ft 0 kts 91°
2026-05-04 07:04 7.36747 134.53608 155 ft 50 kts 90°
2026-05-04 07:04 7.36737 134.54243 158 ft 128 kts 93°
2026-05-04 07:05 7.36691 134.55317 451 ft 166 kts 92°
2026-05-04 07:05 7.36653 134.56567 972 ft 191 kts 90°
2026-05-04 07:05 7.36568 134.57917 1936 ft 189 kts 86°
2026-05-04 07:05 7.36733 134.59222 2680 ft 197 kts 76°
2026-05-04 07:06 7.38366 134.61761 3728 ft 231 kts 31°
2026-05-04 07:06 7.39803 134.62256 5019 ft 221 kts
2026-05-04 07:06 7.41476 134.62205 5038 ft 269 kts 351°
2026-05-04 07:07 7.43257 134.61320 5462 ft 292 kts 318°
2026-05-04 07:08 7.48952 134.47951 11268 ft 331 kts 294°
2026-05-04 07:09 7.49817 134.45824 12037 ft 333 kts 294°
2026-05-04 07:09 7.50694 134.43644 12773 ft 337 kts 294°
2026-05-04 07:09 7.51578 134.41436 13498 ft 341 kts 294°
2026-05-04 07:09 7.52469 134.39206 14122 ft 345 kts 294°
2026-05-04 07:10 7.53370 134.36949 14740 ft 348 kts 294°
2026-05-04 07:10 7.54276 134.34679 15360 ft 351 kts 294°
2026-05-04 07:12 7.60855 134.18171 19178 ft 374 kts 294°
2026-05-04 07:12 7.61817 134.15756 19634 ft 377 kts 294°
2026-05-04 07:12 7.62799 134.13289 20092 ft 379 kts 294°
2026-05-04 07:12 7.63784 134.10815 20520 ft 383 kts 294°
2026-05-04 07:13 7.64782 134.08309 20926 ft 387 kts 294°
2026-05-04 07:13 7.65790 134.05776 21384 ft 389 kts 294°
2026-05-04 07:13 7.66791 134.03262 21812 ft 392 kts 294°
2026-05-04 07:14 7.70926 133.92862 23511 ft 405 kts 294°
2026-05-04 07:14 7.71964 133.90251 23866 ft 407 kts 294°
2026-05-04 07:15 7.73014 133.87609 24254 ft 409 kts 294°
2026-05-04 07:15 7.74075 133.84937 24631 ft 411 kts 294°
2026-05-04 07:15 7.75141 133.82253 24998 ft 413 kts 293°
2026-05-04 07:15 7.76213 133.79554 25364 ft 415 kts 293°
2026-05-04 07:16 7.77291 133.76840 25727 ft 417 kts 293°
2026-05-04 07:16 7.78374 133.74114 26094 ft 419 kts 293°
2026-05-04 07:16 7.79460 133.71377 26451 ft 421 kts 293°
2026-05-04 07:16 7.80536 133.68664 26796 ft 423 kts 293°
2026-05-04 07:17 7.81637 133.65889 27134 ft 426 kts 292°
2026-05-04 07:17 7.82735 133.63119 27460 ft 428 kts 292°
2026-05-04 07:17 7.83848 133.60314 27805 ft 430 kts 292°
2026-05-04 07:17 7.84965 133.57500 28103 ft 433 kts 292°
2026-05-04 07:18 7.86083 133.54672 28464 ft 434 kts 292°
2026-05-04 07:18 7.87212 133.51828 28755 ft 437 kts 292°
2026-05-04 07:18 7.88325 133.49016 29135 ft 437 kts 292°
2026-05-04 07:18 7.89456 133.46157 29408 ft 440 kts 292°
2026-05-04 07:19 7.90599 133.43278 29677 ft 443 kts 292°
2026-05-04 07:19 7.91739 133.40393 30003 ft 444 kts 291°
2026-05-04 07:19 7.92893 133.37482 30197 ft 447 kts 291°
2026-05-04 07:19 7.94046 133.34568 30509 ft 447 kts 291°
2026-05-04 07:20 7.95198 133.31652 30769 ft 449 kts 291°
2026-05-04 07:20 7.96345 133.28754 31026 ft 450 kts 291°
2026-05-04 07:20 7.97510 133.25809 31297 ft 451 kts 292°
2026-05-04 07:20 7.98675 133.22860 31524 ft 453 kts 292°
2026-05-04 07:22 8.06939 133.01932 33122 ft 465 kts 292°
2026-05-04 07:22 8.08140 132.98884 33211 ft 470 kts 292°
2026-05-04 07:23 8.09355 132.95806 33429 ft 471 kts 292°
2026-05-04 07:23 8.10564 132.92739 33638 ft 473 kts 292°
2026-05-04 07:23 8.11785 132.89643 33849 ft 474 kts 292°
2026-05-04 07:23 8.12991 132.86583 34042 ft 476 kts 292°
2026-05-04 07:24 8.14229 132.83440 34303 ft 475 kts 292°
2026-05-04 07:24 8.15431 132.80381 34550 ft 474 kts 292°
2026-05-04 07:24 8.16652 132.77279 34768 ft 474 kts 292°
2026-05-04 07:24 8.17868 132.74184 35012 ft 474 kts 292°
2026-05-04 07:25 8.19083 132.71095 35233 ft 474 kts 292°
2026-05-04 07:26 8.27541 132.49560 36887 ft 470 kts 292°
2026-05-04 07:27 8.28742 132.46501 37123 ft 470 kts 292°
2026-05-04 07:27 8.29944 132.43439 37342 ft 469 kts 292°
2026-05-04 07:27 8.31131 132.40416 37572 ft 468 kts 291°
2026-05-04 07:27 8.32332 132.37353 37769 ft 468 kts 292°
2026-05-04 07:28 8.34732 132.31234 37850 ft 467 kts 292°
2026-05-04 07:28 8.37120 132.25142 37856 ft 466 kts 292°
2026-05-04 07:29 8.39485 132.19106 37852 ft 466 kts 291°
2026-05-04 07:29 8.41879 132.12995 37859 ft 468 kts 291°
2026-05-04 07:30 8.44278 132.06865 37854 ft 468 kts 291°
2026-05-04 07:30 8.46658 132.00779 37850 ft 469 kts 291°
2026-05-04 07:31 8.49055 131.94651 37857 ft 471 kts 291°
2026-05-04 07:33 8.58658 131.70062 37855 ft 470 kts 291°
2026-05-04 07:33 8.61061 131.63901 37856 ft 470 kts 291°
2026-05-04 07:34 8.63445 131.57783 37856 ft 470 kts 291°
2026-05-04 07:34 8.65836 131.51648 37861 ft 467 kts 290°
2026-05-04 07:35 8.68212 131.45543 37860 ft 466 kts 290°
2026-05-04 07:35 8.70575 131.39474 37859 ft 466 kts 290°
2026-05-04 07:36 8.72951 131.33364 37860 ft 466 kts 290°
2026-05-04 07:38 8.82387 131.09072 37854 ft 465 kts 290°
2026-05-04 07:38 8.84752 131.02975 37857 ft 466 kts 290°
2026-05-04 07:39 8.86719 130.97900 37857 ft 465 kts 290°
2026-05-04 07:39 8.89084 130.91798 37856 ft 465 kts 290°
2026-05-04 07:40 8.91436 130.85727 37859 ft 466 kts 290°
2026-05-04 07:40 8.93798 130.79626 37859 ft 466 kts 290°
2026-05-04 07:41 8.96166 130.73503 37856 ft 466 kts 290°
2026-05-04 07:41 8.98518 130.67422 37859 ft 466 kts 290°
2026-05-04 07:42 9.00883 130.61301 37861 ft 466 kts 290°
2026-05-04 07:42 9.03226 130.55235 37859 ft 466 kts 290°
2026-05-04 07:43 9.05590 130.49112 37859 ft 466 kts 290°
2026-05-04 07:43 9.07951 130.42991 37860 ft 466 kts 290°
2026-05-04 07:44 9.10295 130.36912 37859 ft 466 kts 290°
2026-05-04 07:44 9.12653 130.30794 37860 ft 467 kts 290°
2026-05-04 07:45 9.15012 130.24670 37861 ft 467 kts 290°
2026-05-04 07:45 9.17359 130.18573 37856 ft 467 kts 290°
2026-05-04 07:46 9.19723 130.12428 37859 ft 467 kts 290°
2026-05-04 07:46 9.22078 130.06302 37860 ft 467 kts 290°
2026-05-04 07:47 9.24497 130.00236 37846 ft 468 kts 298°
2026-05-04 07:49 9.39368 129.78617 37864 ft 468 kts 304°
2026-05-04 07:49 9.43084 129.73195 37862 ft 468 kts 304°
2026-05-04 07:50 9.46764 129.67820 37862 ft 468 kts 304°
2026-05-04 07:50 9.50472 129.62403 37867 ft 468 kts 304°
2026-05-04 07:51 9.54187 129.56974 37865 ft 467 kts 304°
2026-05-04 07:51 9.57866 129.51595 37860 ft 466 kts 304°
2026-05-04 07:52 9.61555 129.46198 37863 ft 466 kts 304°
2026-05-04 07:52 9.65252 129.40789 37864 ft 466 kts 304°
2026-05-04 07:54 9.79935 129.19278 37863 ft 464 kts 304°
2026-05-04 07:55 9.83617 129.13877 37863 ft 464 kts 304°
2026-05-04 07:55 9.87291 129.08486 37869 ft 465 kts 304°
2026-05-04 07:56 9.90956 129.03106 37868 ft 465 kts 304°
2026-05-04 07:56 9.94613 128.97734 37868 ft 465 kts 304°
2026-05-04 07:57 9.98290 128.92332 37867 ft 465 kts 304°
2026-05-04 07:57 10.01967 128.86927 37867 ft 464 kts 305°
2026-05-04 07:58 10.05634 128.81533 37868 ft 464 kts 305°
2026-05-04 07:58 10.09278 128.76172 37867 ft 464 kts 305°
2026-05-04 07:59 10.12948 128.70768 37870 ft 464 kts 305°
2026-05-04 07:59 10.16617 128.65365 37872 ft 464 kts 305°
2026-05-04 08:00 10.20278 128.59970 37872 ft 464 kts 305°
2026-05-04 08:02 10.34899 128.38400 37870 ft 464 kts 305°
2026-05-04 08:02 10.38559 128.32995 37869 ft 464 kts 305°
2026-05-04 08:03 10.42218 128.27587 37869 ft 463 kts 305°
2026-05-04 08:03 10.45849 128.22220 37873 ft 464 kts 305°
2026-05-04 08:04 10.49504 128.16813 37875 ft 463 kts 305°
2026-05-04 08:04 10.53153 128.11413 37876 ft 463 kts 305°
2026-05-04 08:05 10.56809 128.06001 37877 ft 463 kts 305°
2026-05-04 08:05 10.60428 128.00640 37876 ft 463 kts 305°
2026-05-04 08:06 10.64077 127.95232 37878 ft 463 kts 304°
2026-05-04 08:06 10.67695 127.89866 37877 ft 462 kts 304°
2026-05-04 08:08 10.82200 127.68333 37884 ft 458 kts 304°
2026-05-04 08:11 10.98337 127.44326 37880 ft 456 kts 304°
2026-05-04 08:11 11.03683 127.36361 37886 ft 456 kts 304°
2026-05-04 08:12 11.07264 127.31021 37882 ft 456 kts 304°
2026-05-04 08:12 11.10844 127.25682 37885 ft 456 kts 304°
2026-05-04 08:13 11.14412 127.20356 37882 ft 454 kts 304°
2026-05-04 08:13 11.17941 127.15087 37883 ft 453 kts 304°
2026-05-04 08:14 11.21497 127.09774 37889 ft 454 kts 304°
2026-05-04 08:16 11.35685 126.88552 37891 ft 453 kts 304°
2026-05-04 08:16 11.39212 126.83268 37889 ft 452 kts 303°
2026-05-04 08:17 11.42754 126.77962 37888 ft 453 kts 303°
2026-05-04 08:17 11.46289 126.72661 37889 ft 451 kts 303°
2026-05-04 08:19 11.60385 126.51498 37893 ft 452 kts 303°
2026-05-04 08:20 11.63905 126.46209 37887 ft 450 kts 303°
2026-05-04 08:20 11.67395 126.40958 37890 ft 449 kts 303°
2026-05-04 08:21 11.70899 126.35687 37885 ft 449 kts 303°
2026-05-04 08:21 11.74408 126.30402 37893 ft 450 kts 303°
2026-05-04 08:22 11.77920 126.25112 37892 ft 451 kts 303°
2026-05-04 08:24 11.91908 126.04012 37900 ft 448 kts 303°
2026-05-04 08:24 11.95382 125.98765 37897 ft 448 kts 303°
2026-05-04 08:25 11.98873 125.93489 37892 ft 448 kts 303°
2026-05-04 08:25 12.02371 125.88200 37895 ft 449 kts 303°
2026-05-04 08:27 12.16306 125.67102 37897 ft 449 kts 303°
2026-05-04 08:28 12.19772 125.61848 37895 ft 449 kts 303°
2026-05-04 08:28 12.23263 125.56554 37892 ft 449 kts 303°
2026-05-04 08:29 12.26754 125.51255 37891 ft 448 kts 303°
2026-05-04 08:31 12.39765 125.30780 37896 ft 449 kts 300°
2026-05-04 08:33 12.52615 125.08880 37898 ft 449 kts 300°
2026-05-04 08:35 12.65411 124.87035 37890 ft 446 kts 299°
2026-05-04 08:35 12.68602 124.81578 37899 ft 447 kts 299°
2026-05-04 08:37 12.79786 124.62429 37892 ft 447 kts 300°
2026-05-04 08:38 12.82977 124.56958 37897 ft 448 kts 300°
2026-05-04 08:38 12.86172 124.51476 37891 ft 448 kts 300°
2026-05-04 08:40 12.98908 124.29594 37896 ft 448 kts 300°
2026-05-04 08:41 13.02098 124.24103 37898 ft 448 kts 300°
2026-05-04 08:41 13.05270 124.18642 37906 ft 445 kts 299°
2026-05-04 08:42 13.08417 124.13220 37900 ft 442 kts 300°
2026-05-04 08:42 13.11571 124.07782 37900 ft 443 kts 300°
2026-05-04 08:43 13.14705 124.02376 37895 ft 443 kts 299°
2026-05-04 08:43 13.17857 123.96934 37897 ft 443 kts 299°
2026-05-04 08:44 13.20999 123.91508 37904 ft 442 kts 299°
2026-05-04 08:46 13.33511 123.69862 37899 ft 441 kts 299°
2026-05-04 08:46 13.36626 123.64464 37900 ft 442 kts 298°
2026-05-04 08:47 13.39765 123.59023 37897 ft 442 kts 298°
2026-05-04 08:47 13.42908 123.53571 37893 ft 442 kts 298°
2026-05-04 08:48 13.46017 123.48175 37889 ft 442 kts 298°
2026-05-04 08:48 13.49148 123.42736 37902 ft 442 kts 298°
2026-05-04 08:49 13.52277 123.37298 37894 ft 441 kts 298°
2026-05-04 08:50 13.62431 123.17923 37889 ft 440 kts 294°
2026-05-04 08:51 13.65148 123.12261 37884 ft 442 kts 294°
2026-05-04 08:51 13.67858 123.06617 37886 ft 443 kts 294°
2026-05-04 08:52 13.70581 123.00941 37893 ft 443 kts 294°
2026-05-04 08:52 13.73308 122.95252 37891 ft 443 kts 294°
2026-05-04 08:54 13.84101 122.72663 36287 ft 436 kts 294°
2026-05-04 08:55 13.85429 122.69866 35800 ft 433 kts 294°
2026-05-04 08:55 13.86750 122.67082 35340 ft 430 kts 294°
2026-05-04 08:55 13.88060 122.64322 34849 ft 428 kts 294°
2026-05-04 08:55 13.89366 122.61567 34336 ft 427 kts 295°
2026-05-04 08:57 13.98372 122.42558 30824 ft 416 kts 294°
2026-05-04 09:01 14.15371 122.06549 24736 ft 375 kts 296°
2026-05-04 09:01 14.16505 122.04142 24346 ft 372 kts 296°
2026-05-04 09:01 14.17633 122.01746 23962 ft 368 kts 296°
2026-05-04 09:01 14.18736 121.99404 23588 ft 367 kts 296°
2026-05-04 09:02 14.19848 121.97039 23150 ft 366 kts 296°
2026-05-04 09:02 14.20961 121.94673 22750 ft 365 kts 296°
2026-05-04 09:02 14.22046 121.92318 22349 ft 363 kts 294°
2026-05-04 09:02 14.23056 121.89944 21931 ft 363 kts 294°
2026-05-04 09:03 14.24070 121.87568 21599 ft 359 kts 294°
2026-05-04 09:03 14.25079 121.85218 21243 ft 357 kts 294°
2026-05-04 09:03 14.26084 121.82877 20884 ft 355 kts 294°
2026-05-04 09:03 14.27081 121.80558 20518 ft 353 kts 294°
2026-05-04 09:04 14.28062 121.78272 20166 ft 352 kts 294°
2026-05-04 09:04 14.29052 121.75966 19807 ft 351 kts 294°
2026-05-04 09:04 14.30039 121.73666 19449 ft 350 kts 295°
2026-05-04 09:04 14.31025 121.71370 19099 ft 349 kts 295°
2026-05-04 09:05 14.32008 121.69076 18739 ft 349 kts 295°
2026-05-04 09:05 14.32978 121.66815 18382 ft 349 kts 294°
2026-05-04 09:05 14.33956 121.64530 17992 ft 349 kts 295°
2026-05-04 09:05 14.34939 121.62239 17604 ft 348 kts 294°
2026-05-04 09:06 14.35913 121.59967 17230 ft 346 kts 295°
2026-05-04 09:07 14.42600 121.44338 14773 ft 336 kts 295°
2026-05-04 09:08 14.43539 121.42137 14425 ft 335 kts 295°
2026-05-04 09:08 14.44477 121.39942 14081 ft 334 kts 296°
2026-05-04 09:08 14.45414 121.37749 13747 ft 334 kts 295°
2026-05-04 09:08 14.46352 121.35553 13333 ft 333 kts 295°
2026-05-04 09:09 14.47287 121.33363 12980 ft 331 kts 296°
2026-05-04 09:09 14.48205 121.31212 12799 ft 323 kts 296°
2026-05-04 09:09 14.48926 121.29044 12551 ft 320 kts 278°
2026-05-04 09:09 14.48756 121.26805 12191 ft 320 kts 251°
2026-05-04 09:10 14.47734 121.24783 11874 ft 316 kts 238°
2026-05-04 09:10 14.46617 121.22826 11545 ft 315 kts 239°
2026-05-04 09:10 14.45521 121.20866 11187 ft 315 kts 239°
2026-05-04 09:10 14.44428 121.18903 10838 ft 314 kts 240°
2026-05-04 09:11 14.43347 121.16959 10552 ft 312 kts 240°
2026-05-04 09:11 14.42274 121.15027 10279 ft 309 kts 240°
2026-05-04 09:11 14.41220 121.13130 9967 ft 308 kts 240°
2026-05-04 09:11 14.40157 121.11215 9640 ft 307 kts 240°
2026-05-04 09:12 14.39092 121.09298 9266 ft 308 kts 240°
2026-05-04 09:12 14.38027 121.07383 8935 ft 307 kts 240°
2026-05-04 09:14 14.30655 120.94125 6595 ft 294 kts 239°
2026-05-04 09:14 14.29646 120.92312 6305 ft 289 kts 239°
2026-05-04 09:14 14.28663 120.90544 6123 ft 278 kts 239°
2026-05-04 09:14 14.27716 120.88846 5988 ft 267 kts 238°
2026-05-04 09:15 14.26821 120.87237 5956 ft 252 kts 242°
2026-05-04 09:15 14.26172 120.85573 5993 ft 250 kts 253°
2026-05-04 09:15 14.26044 120.83840 5899 ft 246 kts 287°
2026-05-04 09:15 14.26913 120.82384 5911 ft 238 kts 321°
2026-05-04 09:17 14.39387 120.81629 2661 ft 225 kts 39°
2026-05-04 09:18 14.40384 120.82728 2663 ft 198 kts 58°
2026-05-04 09:18 14.41076 120.83883 2638 ft 180 kts 61°
2026-05-04 09:18 14.41680 120.84955 2585 ft 167 kts 63°
2026-05-04 09:18 14.42247 120.85995 2559 ft 165 kts 62°
2026-05-04 09:19 14.42618 120.86678 2580 ft 165 kts 62°
2026-05-04 09:19 14.43353 120.88040 2505 ft 163 kts 63°
2026-05-04 09:19 14.43905 120.89061 2339 ft 163 kts 63°
2026-05-04 09:19 14.44462 120.90098 2152 ft 166 kts 63°
2026-05-04 09:20 14.44822 120.90765 2033 ft 157 kts 63°
2026-05-04 09:20 14.45343 120.91732 1837 ft 152 kts 63°
2026-05-04 09:20 14.45857 120.92690 1664 ft 153 kts 64°
2026-05-04 09:20 14.46376 120.93638 1483 ft 150 kts 63°
2026-05-04 09:21 14.46885 120.94582 1264 ft 150 kts 65°
2026-05-04 09:21 14.47362 120.95538 1096 ft 150 kts 65°
2026-05-04 09:21 14.47826 120.96467 929 ft 144 kts 64°
2026-05-04 09:21 14.48320 120.97369 660 ft 145 kts 62°
2026-05-04 09:22 14.48831 120.98265 446 ft 144 kts 62°
2026-05-04 09:22 14.49330 120.99161 303 ft 144 kts 63°
2026-05-04 09:22 14.49831 121.00074 137 ft 147 kts 63°
2026-05-04 09:22 14.50309 121.00944 67 ft 125 kts 61°
2026-05-04 09:23 14.50623 121.01515 71 ft 52 kts 60°
2026-05-04 09:23 14.50753 121.01707 66 ft 22 kts 42°
2026-05-04 09:23 14.50842 121.01779 70 ft 6 kts 36°
2026-05-04 09:23 14.50852 121.01785 70 ft 3 kts 26°
2026-05-04 09:25 14.51207 121.01458 68 ft 2 kts 315°
2026-05-04 09:25 14.51228 121.01438 69 ft 7 kts 316°
2026-05-04 09:26 14.51277 121.01423 64 ft 9 kts 22°
2026-05-04 09:26 14.51327 121.01482 70 ft 13 kts 53°
2026-05-04 09:26 14.51388 121.01553 62 ft 13 kts 43°
2026-05-04 09:26 14.51451 121.01584 68 ft 8 kts 336°
2026-05-04 09:27 14.51481 121.01560 71 ft 2 kts 318°
2026-05-04 09:27 14.51503 121.01551 63 ft 4 kts
2026-05-04 09:27 14.51529 121.01571 71 ft 6 kts 44°
2026-05-04 09:27 14.51558 121.01600 69 ft 3 kts 45°
2026-05-04 09:28 14.51567 121.01610 63 ft 0 kts 44°